[[{"header":{"parameterUnit":"m.s-1","parameterCategory":1,"la1":30.2991,"la2":30.254,"lo1":-89.0895,"lo2":-89.0444,"dy":0.0017,"dx":0.0017,"nx":28,"ny":28,"refTime":"2023-11-13T03:00:00:Z","depth":0,"parameterNumber":2,"parameterNumberName":"U-component_of_WINDS"},"data":[0,0,0,0,0,0,0,0,0,0,0,0,0,0,0,0,0,0,0,0,0,0,0,0,0,0,0,0,0,0,0,0,0,0,0,0,0,0,0,0,0,0,0,0,0,0,0,0,0,0,0,0,0,0,0,0,0,0,-7.4259,-7.426,0,-7.4312,-7.4312,-7.4313,-7.4102,-7.4096,-7.4089,-7.4083,-7.414,-7.4147,-7.4154,0,0,0,0,0,0,0,0,0,0,0,0,0,-7.3979,-7.3985,-7.4259,-7.426,-7.426,-7.4312,-7.4312,-7.4313,-7.4103,-7.4095,-7.4088,-7.4081,-7.4138,-7.4146,-7.4155,0,0,0,0,0,0,0,0,0,0,0,0,0,-7.4073,-7.3987,-7.4259,-7.4162,-7.4153,-7.4311,-7.4312,-7.4313,-7.4105,-7.4095,-7.4086,-7.4077,-7.4135,-7.4145,-7.4156,-7.4411,0,0,-7.419,-7.4195,0,0,0,0,0,0,0,0,-7.4068,-7.4084,-7.4175,-7.4169,-7.416,-7.419,-7.4234,-7.4346,-7.4107,-7.4123,-7.4083,-7.4073,-7.4165,-7.4173,-7.4203,-7.4414,-7.4416,-7.4191,-7.4197,-7.4202,-7.4205,0,0,0,0,0,0,0,-7.4062,-7.408,-7.428,-7.4177,-7.4168,-7.4116,-7.4119,-7.4254,-7.4196,-7.4121,-7.4106,-7.4115,-7.4158,-7.4193,-7.4203,-7.4417,-7.419,-7.42,-7.4207,-7.4211,-7.484,-7.485,0,0,0,0,0,0,-7.4068,-7.4076,-7.4278,-7.4281,-7.409,-7.4129,-7.4132,-7.419,-7.4194,-7.4185,-7.4123,-7.4105,-7.4179,-7.419,-7.4204,-7.4503,-7.4202,-7.4212,-7.4219,-7.483,-7.4843,-7.4853,0,0,0,0,0,0,-7.4063,-7.4088,-7.4276,-7.4175,-7.4195,-7.4143,-7.421,-7.4196,-7.423,-7.4195,-7.4184,-7.4169,-7.4172,-7.4188,-7.4361,-7.4502,-7.4217,-7.4227,-7.4818,-7.4834,-7.4848,-7.5105,0,0,0,0,0,0,-7.4056,-7.4087,-7.4183,-7.4178,-7.4201,-7.4433,-7.4219,-7.4204,-7.4249,-7.4226,-7.4235,-7.4227,-7.4166,-7.4346,-7.4372,-7.4512,-7.4236,-7.4805,-7.4825,-7.4843,-7.5083,-7.5127,-7.5164,0,0,0,0,0,-7.4046,-7.4254,-7.4189,-7.4215,-7.432,-7.4441,-7.4454,-7.4378,-7.4262,-7.4358,-7.4335,-7.4227,-7.4482,-7.4365,-7.4393,-7.4539,-7.4796,-7.482,-7.4842,-7.5065,-7.5118,-7.5163,0,0,0,0,0,0,-7.4277,-7.4251,-7.4179,-7.4391,-7.442,-7.4405,-7.4524,-7.4436,-7.4499,-7.4476,-7.4379,-7.4383,-7.4573,-7.4572,-7.4443,-7.4786,-7.4619,-7.4649,-7.478,-7.483,-7.4869,-7.4866,-7.4245,0,0,0,0,0,-7.4353,-7.4453,-7.4425,-7.4615,-7.4632,-7.4577,-7.4627,-7.4566,-7.4592,-7.4603,-7.4593,-7.4623,-7.471,-7.4769,-7.4847,-7.5081,-7.5081,-7.5195,-7.5236,-7.5269,-7.5296,-7.5421,-7.5472,-7.4928,-7.4928,-7.4928,0,0,-7.451,-7.4508,-7.4577,-7.4661,-7.4676,-7.4783,-7.4588,-7.4709,-7.4788,-7.4622,-7.4784,-7.4778,-7.4805,-7.5011,-7.51,-7.5016,-7.5446,-7.5298,-7.5325,-7.5334,-7.545,-7.5501,-7.5547,-7.4944,-7.4941,-7.4939,0,0,-7.4851,-7.486,-7.5019,-7.5038,-7.5063,-7.5024,-7.5063,-7.5062,-7.5051,-7.5212,-7.509,-7.5182,-7.5334,-7.5358,-7.5391,-7.5742,-7.5646,-7.577,-7.5981,-7.6104,-7.6147,-7.6185,-7.6312,-7.6358,-7.5797,-7.5798,-7.5798,0,-7.5044,-7.5199,-7.5112,-7.5242,-7.5283,-7.5136,-7.5297,-7.532,-7.537,-7.5402,-7.5307,-7.5494,-7.5502,-7.5711,-7.5797,-7.5828,-7.587,-7.577,-7.6148,-7.6185,-7.6218,-7.6338,-7.6386,-7.5813,-7.5811,-7.5809,-7.5808,0,-7.5435,-7.5545,-7.5671,-7.5722,-7.5777,-7.5922,-7.5858,-7.5924,-7.5858,-7.5831,-7.5997,-7.6002,-7.6078,-7.6123,-7.606,-7.6325,-7.6271,-7.6164,-7.5994,-7.6287,-7.6398,-7.6443,-7.5834,-7.5829,-7.5824,-7.5821,0,0,-7.5925,-7.5926,-7.5974,-7.5996,-7.6012,-7.6096,-7.6234,-7.6308,-7.6368,-7.6407,-7.6522,-7.6653,-7.6554,-7.6591,-7.6529,-7.6637,-7.6917,-7.6516,-7.6515,-7.6592,-7.721,-7.7293,-7.7347,-7.6852,-7.6861,-7.6867,-7.7209,0,-7.6261,-7.6497,-7.6423,-7.6662,-7.6763,-7.6625,-7.6746,-7.677,-7.6748,-7.6831,-7.6805,-7.6901,-7.6761,-7.6783,-7.6884,-7.6862,-7.704,-7.6836,-7.696,-7.6966,-7.6959,-7.7405,-7.7492,-7.7814,-7.7251,-7.7258,-7.7264,0,-7.6685,-7.6741,-7.699,-7.699,-7.703,-7.714,-7.7202,-7.7282,-7.7307,-7.7283,-7.7326,-7.7242,-7.7378,-7.7208,-7.7396,-7.7259,-7.7305,-7.7302,-7.7313,-7.7323,-7.7134,-7.7429,-7.7915,-7.7964,-7.7331,-7.7326,-7.7321,0,-7.7019,-7.7156,-7.7323,-7.7346,-7.735,-7.7431,-7.7436,-7.7451,-7.7501,-7.7556,-7.7587,-7.7658,-7.7697,-7.7754,-7.7692,-7.7573,-7.789,-7.7714,-7.7876,-7.7878,-7.795,-7.7947,-7.8452,-7.7978,-7.7977,-7.7976,-7.7975,0,-7.7403,-7.7562,-7.7473,-7.7577,-7.775,-7.7664,-7.7838,-7.7828,-7.7843,-7.7942,-7.7827,-7.7923,-7.7834,-7.7923,-7.7875,-7.8039,-7.8057,-7.8042,-7.8028,-7.8054,-7.8056,-7.8084,-7.8061,-7.7989,-7.7986,-7.7983,-7.7981,0,-7.7807,-7.7754,-7.7927,-7.7916,-7.7917,-7.8046,-7.8037,-7.8133,-7.8101,-7.8229,-7.8254,-7.8206,-7.8304,-7.8247,-7.8347,-7.8315,-7.8529,-7.8483,-7.8521,-7.8509,-7.8675,-7.8661,-7.9217,-7.9286,-7.8767,-7.8772,-7.8776,0,-7.8056,-7.8175,-7.8177,-7.8235,-7.8248,-7.8343,-7.8392,-7.8312,-7.8368,-7.8406,-7.8498,-7.8585,-7.8651,-7.8814,-7.8789,-7.8866,-7.8822,-7.9012,-7.8833,-7.8855,-7.8827,-7.8821,-7.8834,-7.9049,-7.9055,-7.906,-7.9064,0,-7.8505,-7.8473,-7.8549,-7.8617,-7.8679,-7.8729,-7.8769,-7.8823,-7.8742,-7.8813,-7.8911,-7.8962,-7.9064,-7.9154,-7.9219,-7.9225,-7.9133,-7.912,-7.9161,-7.919,-7.9208,-7.9202,-7.8621,-7.9108,-7.9103,-7.91,-7.9098,-7.9096,-7.884,-7.8939,-7.8956,-7.9045,-7.9066,-7.9107,-7.9196,-7.9176,-7.9256,-7.9333,-7.928,-7.9397,-7.9419,-7.9497,-7.9515,-7.9606,-7.953,-7.959,-7.9605,-7.9622,-7.9646,-7.9192,-7.9617,-7.9616,-7.9615,-7.9614,-7.9613,0,-7.9284,-7.9288,-7.937,-7.943,-7.95,-7.9405,-7.9444,-7.951,-7.9614,-7.9642,-7.9709,-7.9823,-7.9909,-7.9891,-7.9969,-8.0045,-8.0005,-8.0069,-8.0063,-8.0067,-7.9708,-7.9665,-8.01,-8.01,-8.01,-8.01,-8.01,-8.01,-7.9524,-7.9687,-7.9657,-7.9831,-7.9833,-7.9946,-7.9977,-8.0014,-8.0036,-8.0168,-8.0239,-8.0226,-8.0235,-8.0313,-8.0388,-8.0381,-8.0416,-8.0496,-8.0473,-8.014,-8.0092,-8.0046,-8.0005,-8.0504,-8.0504,-8.0823,-8.0827,-8.0829]},{"header":{"parameterUnit":"m.s-1","parameterCategory":1,"la1":30.2991,"la2":30.254,"lo1":-89.0895,"lo2":-89.0444,"dy":0.0017,"dx":0.0017,"nx":28,"ny":28,"refTime":"2023-11-13T03:00:00:Z","depth":0,"parameterNumber":3,"parameterNumberName":"V-component_of_WINDS"},"data":[0,0,0,0,0,0,0,0,0,0,0,0,0,0,0,0,0,0,0,0,0,0,0,0,0,0,0,0,0,0,0,0,0,0,0,0,0,0,0,0,0,0,0,0,0,0,0,0,0,0,0,0,0,0,0,0,0,0,-2.6264,-2.6264,0,-2.6256,-2.6256,-2.6255,-2.6238,-2.6238,-2.6237,-2.6237,-2.6227,-2.6227,-2.6227,0,0,0,0,0,0,0,0,0,0,0,0,0,-2.6262,-2.6263,-2.6264,-2.6264,-2.6264,-2.6256,-2.6256,-2.6255,-2.6238,-2.6238,-2.6237,-2.6237,-2.6227,-2.6227,-2.6227,0,0,0,0,0,0,0,0,0,0,0,0,0,-2.6259,-2.6263,-2.6264,-2.6254,-2.6253,-2.6256,-2.6255,-2.6255,-2.6238,-2.6238,-2.6237,-2.6237,-2.6227,-2.6227,-2.6227,-2.6237,0,0,-2.6227,-2.6227,0,0,0,0,0,0,0,0,-2.626,-2.626,-2.6256,-2.6255,-2.6254,-2.6247,-2.6251,-2.6249,-2.6238,-2.6244,-2.6237,-2.6236,-2.6234,-2.6233,-2.6233,-2.6237,-2.6236,-2.6227,-2.6227,-2.6227,-2.6227,0,0,0,0,0,0,0,-2.626,-2.626,-2.6261,-2.6256,-2.6255,-2.6249,-2.6248,-2.6251,-2.6242,-2.6243,-2.6242,-2.6241,-2.6233,-2.6233,-2.6232,-2.6236,-2.6227,-2.6227,-2.6227,-2.6227,-2.6246,-2.6246,0,0,0,0,0,0,-2.6262,-2.626,-2.6261,-2.6261,-2.6256,-2.625,-2.6249,-2.625,-2.6242,-2.624,-2.6242,-2.6241,-2.6233,-2.6232,-2.6232,-2.6242,-2.6227,-2.6227,-2.6227,-2.6245,-2.6246,-2.6246,0,0,0,0,0,0,-2.6262,-2.6262,-2.6261,-2.626,-2.6259,-2.625,-2.6252,-2.625,-2.625,-2.6241,-2.6239,-2.6243,-2.6232,-2.6232,-2.6236,-2.6241,-2.6227,-2.6227,-2.6245,-2.6245,-2.6246,-2.6264,0,0,0,0,0,0,-2.6262,-2.6262,-2.6267,-2.626,-2.626,-2.6266,-2.6252,-2.625,-2.625,-2.6248,-2.6241,-2.624,-2.6232,-2.6236,-2.6236,-2.6241,-2.6227,-2.6244,-2.6245,-2.6246,-2.6262,-2.6265,-2.6267,0,0,0,0,0,-2.6262,-2.6273,-2.6268,-2.6268,-2.6266,-2.6267,-2.6266,-2.6258,-2.6251,-2.6255,-2.6248,-2.624,-2.6241,-2.6236,-2.6236,-2.6242,-2.6244,-2.6245,-2.6246,-2.6261,-2.6264,-2.6267,0,0,0,0,0,0,-2.6281,-2.6272,-2.6266,-2.6275,-2.6272,-2.6264,-2.6269,-2.6261,-2.626,-2.6258,-2.6247,-2.6245,-2.625,-2.6246,-2.6241,-2.625,-2.6241,-2.6242,-2.6253,-2.6255,-2.6258,-2.6258,-2.6227,0,0,0,0,0,-2.6286,-2.6289,-2.628,-2.6289,-2.6288,-2.6279,-2.6279,-2.6272,-2.6268,-2.6267,-2.6261,-2.6257,-2.6255,-2.6255,-2.6254,-2.6262,-2.6259,-2.6265,-2.6268,-2.6269,-2.627,-2.6272,-2.6274,-2.625,-2.625,-2.625,0,0,-2.6297,-2.6292,-2.6295,-2.6293,-2.6289,-2.6291,-2.6278,-2.628,-2.6281,-2.6267,-2.627,-2.6265,-2.6259,-2.6264,-2.6266,-2.6261,-2.6276,-2.6271,-2.6272,-2.6272,-2.6273,-2.6275,-2.6277,-2.625,-2.625,-2.625,0,0,-2.6318,-2.6315,-2.6321,-2.6318,-2.6312,-2.6306,-2.6307,-2.63,-2.6296,-2.6299,-2.6288,-2.6288,-2.6287,-2.6283,-2.628,-2.6296,-2.6288,-2.6296,-2.6308,-2.6309,-2.6311,-2.6313,-2.6317,-2.6319,-2.6297,-2.6297,-2.6297,0,-2.6332,-2.6334,-2.6325,-2.6328,-2.6326,-2.6313,-2.6318,-2.6315,-2.631,-2.6308,-2.6303,-2.63,-2.6295,-2.6298,-2.6302,-2.6301,-2.6301,-2.6297,-2.6312,-2.6313,-2.6314,-2.6318,-2.632,-2.6298,-2.6298,-2.6298,-2.6298,0,-2.6351,-2.6353,-2.6358,-2.6353,-2.6352,-2.6356,-2.6345,-2.6345,-2.6338,-2.6332,-2.6333,-2.6327,-2.6323,-2.6323,-2.6317,-2.6324,-2.6321,-2.6314,-2.6304,-2.6318,-2.6321,-2.6323,-2.63,-2.6299,-2.6299,-2.6299,0,0,-2.6385,-2.6372,-2.6374,-2.6371,-2.6363,-2.6364,-2.6366,-2.6362,-2.6362,-2.6358,-2.6358,-2.6357,-2.6349,-2.6346,-2.6339,-2.634,-2.6351,-2.6332,-2.6332,-2.6335,-2.6357,-2.6362,-2.6364,-2.6345,-2.6345,-2.6345,-2.6357,0,-2.6402,-2.6406,-2.6397,-2.6402,-2.6403,-2.6389,-2.639,-2.6385,-2.6379,-2.6377,-2.6369,-2.6368,-2.6359,-2.6357,-2.6357,-2.6349,-2.6355,-2.6349,-2.6344,-2.6344,-2.6345,-2.6366,-2.6372,-2.6383,-2.6358,-2.6358,-2.6359,0,-2.6425,-2.6421,-2.6427,-2.6416,-2.6416,-2.6418,-2.6412,-2.6412,-2.6404,-2.6399,-2.6395,-2.6386,-2.6385,-2.6376,-2.6374,-2.637,-2.6368,-2.6363,-2.6363,-2.6362,-2.6352,-2.6364,-2.6387,-2.6388,-2.6361,-2.6361,-2.636,0,-2.6446,-2.6443,-2.6446,-2.6443,-2.6432,-2.6433,-2.6428,-2.642,-2.6418,-2.6413,-2.6411,-2.6406,-2.6403,-2.6398,-2.6387,-2.6382,-2.6386,-2.6376,-2.6381,-2.6381,-2.6382,-2.6382,-2.6404,-2.6382,-2.6382,-2.6382,-2.6382,0,-2.6467,-2.6471,-2.6455,-2.6457,-2.6459,-2.6447,-2.645,-2.6444,-2.6437,-2.6435,-2.6423,-2.6422,-2.6408,-2.6405,-2.6396,-2.6395,-2.6394,-2.6389,-2.6386,-2.639,-2.639,-2.6387,-2.6386,-2.6382,-2.6382,-2.6382,-2.6382,0,-2.6493,-2.6482,-2.6484,-2.6472,-2.6469,-2.6472,-2.6461,-2.6461,-2.6453,-2.6452,-2.645,-2.6438,-2.6433,-2.6421,-2.6414,-2.6408,-2.6409,-2.6405,-2.6411,-2.641,-2.6414,-2.6414,-2.6434,-2.6435,-2.6414,-2.6414,-2.6414,0,-2.6506,-2.6508,-2.6497,-2.6495,-2.6491,-2.6488,-2.6485,-2.6473,-2.647,-2.6461,-2.6461,-2.6456,-2.6451,-2.6444,-2.6433,-2.6426,-2.6422,-2.6429,-2.6421,-2.6423,-2.642,-2.642,-2.6419,-2.6431,-2.6431,-2.6432,-2.6432,0,-2.6531,-2.6525,-2.6522,-2.6516,-2.6513,-2.6508,-2.6502,-2.6501,-2.6486,-2.6484,-2.6479,-2.6475,-2.6466,-2.646,-2.6452,-2.6445,-2.6436,-2.6434,-2.6435,-2.6438,-2.6441,-2.6438,-2.6416,-2.6434,-2.6434,-2.6434,-2.6433,-2.6433,-2.655,-2.655,-2.6542,-2.6538,-2.6532,-2.6526,-2.6525,-2.6516,-2.6512,-2.6504,-2.6496,-2.6492,-2.6482,-2.647,-2.6464,-2.6459,-2.6454,-2.6455,-2.6455,-2.6456,-2.6456,-2.6442,-2.6458,-2.6457,-2.6457,-2.6457,-2.6457,0,-2.6573,-2.6566,-2.6562,-2.6554,-2.655,-2.6541,-2.6534,-2.6531,-2.6527,-2.6519,-2.6514,-2.6507,-2.65,-2.6489,-2.6481,-2.6479,-2.6474,-2.6477,-2.6477,-2.6475,-2.6462,-2.6462,-2.6481,-2.6481,-2.6481,-2.6481,-2.6481,-2.6481,-2.6584,-2.6584,-2.6577,-2.6573,-2.6566,-2.6561,-2.6557,-2.6551,-2.6544,-2.6537,-2.6532,-2.6524,-2.6514,-2.6505,-2.6498,-2.6494,-2.6492,-2.6496,-2.6491,-2.6479,-2.6477,-2.6474,-2.6474,-2.6496,-2.6496,-2.6505,-2.6505,-2.6505]}]]